TimePDT,TemperatureF,Dew PointF,Humidity,Sea Level PressureIn,VisibilityMPH,Wind Direction,Wind SpeedMPH,Gust SpeedMPH,PrecipitationIn,Events,Conditions,WindDirDegrees,DateUTC
12:15 AM,66.2,35.6,32,30.16,10.0,WNW,5.8,-,N/A,,Clear,300,2012-09-05 07:15:00
12:35 AM,68.0,33.8,28,30.16,10.0,WNW,4.6,-,N/A,,Partly Cloudy,300,2012-09-05 07:35:00
12:55 AM,66.2,33.8,30,30.16,10.0,Calm,Calm,-,N/A,,Scattered Clouds,0,2012-09-05 07:55:00
1:15 AM,64.4,33.8,32,30.16,10.0,Calm,Calm,-,N/A,,Scattered Clouds,0,2012-09-05 08:15:00
1:35 AM,64.4,32.0,30,30.15,10.0,Calm,Calm,-,N/A,,Partly Cloudy,0,2012-09-05 08:35:00
1:55 AM,64.4,33.8,32,30.15,10.0,WNW,3.5,-,N/A,,Clear,300,2012-09-05 08:55:00
2:15 AM,64.4,35.6,34,30.15,10.0,Calm,Calm,-,N/A,,Partly Cloudy,0,2012-09-05 09:15:00
2:35 AM,62.6,35.6,37,30.15,10.0,NE,3.5,-,N/A,,Clear,40,2012-09-05 09:35:00
2:55 AM,60.8,35.6,39,30.14,10.0,Calm,Calm,-,N/A,,Clear,0,2012-09-05 09:55:00
3:15 AM,62.6,35.6,37,30.14,10.0,Calm,Calm,-,N/A,,Clear,0,2012-09-05 10:15:00
3:35 AM,60.8,39.2,45,30.13,10.0,Calm,Calm,-,N/A,,Clear,0,2012-09-05 10:35:00
3:55 AM,60.8,39.2,45,30.14,10.0,Calm,Calm,-,N/A,,Clear,0,2012-09-05 10:55:00
4:15 AM,62.6,39.2,42,30.13,10.0,Calm,Calm,-,N/A,,Clear,0,2012-09-05 11:15:00
4:35 AM,60.8,39.2,45,30.13,10.0,Calm,Calm,-,N/A,,Clear,0,2012-09-05 11:35:00
4:55 AM,62.6,39.2,42,30.12,10.0,Calm,Calm,-,N/A,,Clear,0,2012-09-05 11:55:00
5:15 AM,60.8,37.4,42,30.12,10.0,Calm,Calm,-,N/A,,Clear,0,2012-09-05 12:15:00
5:35 AM,59.0,37.4,45,30.13,10.0,Calm,Calm,-,N/A,,Clear,0,2012-09-05 12:35:00
5:55 AM,59.0,37.4,45,30.13,10.0,SE,3.5,-,N/A,,Clear,140,2012-09-05 12:55:00
6:15 AM,59.0,39.2,48,30.14,10.0,ESE,3.5,-,N/A,,Clear,120,2012-09-05 13:15:00
6:35 AM,59.0,35.6,42,30.14,9.0,Calm,Calm,-,N/A,,Clear,0,2012-09-05 13:35:00
6:55 AM,60.8,37.4,42,30.14,9.0,South,3.5,-,N/A,,Clear,180,2012-09-05 13:55:00
7:15 AM,62.6,39.2,42,30.15,8.0,ENE,3.5,-,N/A,,Scattered Clouds,70,2012-09-05 14:15:00
7:35 AM,64.4,37.4,37,30.15,9.0,Calm,Calm,-,N/A,,Partly Cloudy,0,2012-09-05 14:35:00
7:55 AM,66.2,39.2,37,30.15,9.0,Calm,Calm,-,N/A,,Partly Cloudy,0,2012-09-05 14:55:00
8:15 AM,66.2,41.0,40,30.15,9.0,Calm,Calm,-,N/A,,Scattered Clouds,0,2012-09-05 15:15:00
8:35 AM,68.0,37.4,33,30.15,9.0,Calm,Calm,-,N/A,,Scattered Clouds,0,2012-09-05 15:35:00
8:55 AM,69.8,37.4,31,30.15,9.0,Calm,Calm,-,N/A,,Partly Cloudy,0,2012-09-05 15:55:00
9:15 AM,71.6,37.4,29,30.15,9.0,NNW,4.6,-,N/A,,Scattered Clouds,340,2012-09-05 16:15:00
9:35 AM,75.2,37.4,25,30.15,9.0,NW,6.9,-,N/A,,Mostly Cloudy,320,2012-09-05 16:35:00
9:55 AM,77.0,35.6,22,30.16,10.0,WNW,4.6,-,N/A,,Scattered Clouds,290,2012-09-05 16:55:00
10:15 AM,77.0,35.6,22,30.16,10.0,NW,6.9,-,N/A,,Mostly Cloudy,310,2012-09-05 17:15:00
11:15 AM,77.0,32.0,19,30.17,10.0,WNW,4.6,-,N/A,,Mostly Cloudy,300,2012-09-05 18:15:00
11:35 AM,77.0,35.6,22,30.17,10.0,NW,8.1,-,N/A,,Mostly Cloudy,320,2012-09-05 18:35:00
11:55 AM,77.0,37.4,24,30.17,9.0,WNW,8.1,-,N/A,Rain,Light Rain,300,2012-09-05 18:55:00
12:15 PM,77.0,44.6,32,30.17,10.0,WSW,6.9,-,N/A,,Partly Cloudy,250,2012-09-05 19:15:00
12:35 PM,75.2,44.6,34,30.17,10.0,WNW,4.6,-,N/A,,Mostly Cloudy,290,2012-09-05 19:35:00
12:55 PM,75.2,46.4,36,30.17,8.0,WSW,5.8,-,N/A,Rain,Light Rain,240,2012-09-05 19:55:00
1:15 PM,73.4,44.6,36,30.16,9.0,NW,3.5,-,N/A,Rain,Light Rain,310,2012-09-05 20:15:00
1:35 PM,73.4,46.4,38,30.16,7.0,Calm,Calm,-,N/A,Rain,Light Rain,0,2012-09-05 20:35:00
1:55 PM,73.4,48.2,41,30.16,10.0,Calm,Calm,-,N/A,,Clear,0,2012-09-05 20:55:00
2:15 PM,75.2,46.4,36,30.15,10.0,NW,5.8,-,N/A,,Clear,320,2012-09-05 21:15:00
2:35 PM,75.2,50.0,41,30.14,10.0,Calm,Calm,-,N/A,,Clear,0,2012-09-05 21:35:00
2:55 PM,75.2,51.8,44,30.15,10.0,West,6.9,-,N/A,Rain,Light Rain,270,2012-09-05 21:55:00
3:15 PM,75.2,48.2,38,30.14,10.0,Calm,Calm,-,N/A,,Partly Cloudy,0,2012-09-05 22:15:00
3:35 PM,75.2,50.0,41,30.13,10.0,SSE,3.5,-,N/A,,Clear,150,2012-09-05 22:35:00
3:55 PM,75.2,51.8,44,30.12,10.0,ESE,5.8,-,N/A,,Clear,110,2012-09-05 22:55:00
4:15 PM,75.2,53.6,47,30.12,10.0,SSE,3.5,-,N/A,,Clear,160,2012-09-05 23:15:00
4:35 PM,75.2,53.6,47,30.11,10.0,Calm,Calm,-,N/A,,Clear,0,2012-09-05 23:35:00
4:55 PM,77.0,51.8,41,30.11,10.0,WSW,3.5,-,N/A,,Clear,250,2012-09-05 23:55:00
5:15 PM,77.0,50.0,39,30.11,10.0,WNW,4.6,-,N/A,,Clear,300,2012-09-06 00:15:00
5:35 PM,77.0,51.8,41,30.10,10.0,NW,3.5,-,N/A,,Clear,310,2012-09-06 00:35:00
5:55 PM,77.0,51.8,41,30.10,10.0,NW,6.9,-,N/A,,Partly Cloudy,310,2012-09-06 00:55:00
6:15 PM,75.2,50.0,41,30.10,10.0,NW,5.8,-,N/A,,Mostly Cloudy,310,2012-09-06 01:15:00
6:35 PM,75.2,50.0,41,30.11,10.0,WNW,10.4,-,N/A,,Mostly Cloudy,300,2012-09-06 01:35:00
6:55 PM,75.2,50.0,41,30.11,10.0,WNW,10.4,-,N/A,,Scattered Clouds,300,2012-09-06 01:55:00
7:15 PM,71.6,48.2,43,30.11,9.0,NW,10.4,-,N/A,,Clear,310,2012-09-06 02:15:00
7:35 PM,69.8,48.2,46,30.11,10.0,WNW,8.1,-,N/A,,Scattered Clouds,300,2012-09-06 02:35:00
7:55 PM,69.8,48.2,46,30.11,10.0,West,3.5,-,N/A,,Mostly Cloudy,280,2012-09-06 02:55:00
8:15 PM,69.8,48.2,46,30.12,10.0,WSW,4.6,-,N/A,,Overcast,250,2012-09-06 03:15:00
8:35 PM,68.0,48.2,49,30.13,10.0,WSW,5.8,-,N/A,,Overcast,250,2012-09-06 03:35:00
9:15 PM,68.0,48.2,49,30.13,10.0,NW,5.8,-,N/A,,Partly Cloudy,310,2012-09-06 04:15:00
9:35 PM,69.8,48.2,46,30.13,10.0,NW,5.8,-,N/A,,Mostly Cloudy,310,2012-09-06 04:35:00
9:55 PM,69.8,46.4,43,30.13,10.0,WNW,5.8,-,N/A,,Mostly Cloudy,290,2012-09-06 04:55:00
10:15 PM,68.0,46.4,46,30.13,10.0,WNW,8.1,-,N/A,,Scattered Clouds,290,2012-09-06 05:15:00
10:35 PM,68.0,50.0,52,30.13,10.0,West,9.2,-,N/A,,Partly Cloudy,280,2012-09-06 05:35:00
10:55 PM,69.8,46.4,43,30.13,10.0,NW,8.1,-,N/A,,Mostly Cloudy,310,2012-09-06 05:55:00
11:55 PM,68.0,46.4,46,30.12,10.0,West,9.2,-,N/A,,Overcast,280,2012-09-06 06:55:00